Leadville, CO

11:08 AM MDT on July 21, 2017 (GMT -0600)
Lake County

Weather History for KLXV - March, 2014

Change the Weather History Date:

Friday, March 14, 2014

  Actual Average Record
Temperature  
Mean Temperature 23 °F -  
Max Temperature 40 °F 37 °F 49 °F (2015)
Min Temperature 6 °F 11 °F -12 °F (1988)
Degree Days  
Heating Degree Days 42 41  
Month to date heating degree days 584 600  
Since 1 July heating degree days 8089 8310  
Cooling Degree Days 0 0  
Month to date cooling degree days 0 0  
Year to date cooling degree days 0 0  
Moisture  
Dew Point 6 °F    
Average Humidity 53    
Maximum Humidity 84    
Minimum Humidity 21    
Precipitation  
Precipitation 0.00 in 0.03 in 0.62 in (2008)
Month to date precipitation 0.69 0.39  
Year to date precipitation 4.86 1.71  
Sea Level Pressure  
Sea Level Pressure 29.98 in    
Wind  
Wind Speed 6 mph (NNE)    
Max Wind Speed 15 mph    
Max Gust Speed 20 mph    
Visibility 10 miles    
Events      
T = Trace of Precipitation, MM = Missing Value Source: NWS Daily Summary

Daily Weather History Graph

Daily Weather History Graph

Search for Another Location

Airport or City:

Trip Planner

Search our weather history database for the weather conditions in past years. The results will help you decide how hot, cold, wet, or windy it might be!

Date:

Astronomy

Mar. 14, 2014 Rise Set
Actual Time 7:18 AM MDT 7:11 PM MDT
Civil Twilight 6:51 AM MDT 7:38 PM MDT
Nautical Twilight 6:20 AM MDT 8:09 PM MDT
Astronomical Twilight 5:49 AM MDT 8:40 PM MDT
Moon 5:36 PM MDT (3/14) 5:59 AM MDT (3/14)
Length of Visible Light 12h 46m
Length of Day
11h 53m
Waxing Gibbous, 96% of the Moon is Illuminated
Mar 14
Waxing Gibbous
Mar 16
Full
Mar 23
Last Quarter
Mar 30
New
Apr 7
First Quarter

Hourly Weather History & Observations

Time (MDT) Temp. Windchill Dew Point Humidity Pressure Visibility Wind Dir Wind Speed Gust Speed Precip Events Conditions
12:53 AM 18.0 °F - 12.0 °F 78% 29.94 in 10.0 mi Calm Calm - N/A   Scattered Clouds
1:53 AM 19.9 °F 13.4 °F 12.0 °F 71% 29.92 in 10.0 mi East 4.6 mph - N/A   Clear
2:53 AM 15.1 °F 5.2 °F 10.0 °F 80% 29.97 in 10.0 mi ENE 6.9 mph - N/A   Clear
3:53 AM 12.0 °F 1.5 °F 8.1 °F 84% 29.98 in 10.0 mi NE 6.9 mph - N/A   Clear
4:53 AM 12.9 °F 5.2 °F 8.1 °F 81% 29.97 in 10.0 mi NNE 4.6 mph - N/A   Clear
5:53 AM 12.0 °F 1.5 °F 7.0 °F 80% 30.00 in 10.0 mi ENE 6.9 mph - N/A   Clear
6:53 AM 10.0 °F -1.9 °F 6.1 °F 84% 30.05 in 10.0 mi NE 8.1 mph - N/A   Clear
7:53 AM 8.1 °F -2.0 °F 3.9 °F 83% 30.09 in 10.0 mi NNE 5.8 mph - N/A   Clear
8:53 AM 19.9 °F 13.4 °F 6.1 °F 55% 30.03 in 10.0 mi NNE 4.6 mph - N/A   Clear
9:53 AM 26.1 °F - 9.0 °F 49% 30.01 in 10.0 mi Calm Calm - N/A   Clear
10:53 AM 32.0 °F 28.7 °F -0.9 °F 24% 29.96 in 10.0 mi Variable 3.5 mph - N/A   Clear
11:53 AM 32.0 °F - -0.9 °F 24% 29.96 in 10.0 mi Calm Calm - N/A   Clear
12:53 PM 33.1 °F 27.7 °F 3.9 °F 29% 29.97 in 10.0 mi South 5.8 mph - N/A   Clear
1:53 PM 34.0 °F 25.5 °F 3.9 °F 28% 29.94 in 10.0 mi South 11.5 mph - N/A   Clear
2:53 PM 37.0 °F 30.4 °F 1.0 °F 22% 29.94 in 10.0 mi West 9.2 mph - N/A   Clear
3:53 PM 37.9 °F 31.5 °F 1.0 °F 21% 29.95 in 10.0 mi NW 9.2 mph 18.4 mph N/A   Clear
4:53 PM 37.0 °F 31.0 °F 3.0 °F 24% 29.94 in 10.0 mi NW 8.1 mph - N/A   Clear
5:53 PM 35.1 °F 27.4 °F 6.1 °F 30% 29.96 in 10.0 mi NW 10.4 mph - N/A   Clear
6:53 PM 32.0 °F 24.2 °F 8.1 °F 37% 30.01 in 10.0 mi West 9.2 mph - N/A   Clear
7:53 PM 27.0 °F 21.6 °F 8.1 °F 45% 30.06 in 10.0 mi North 4.6 mph - N/A   Clear
8:53 PM 26.1 °F 20.5 °F 8.1 °F 47% 29.99 in 10.0 mi North 4.6 mph - N/A   Clear
9:53 PM 24.1 °F 18.2 °F 8.1 °F 51% 29.97 in 10.0 mi North 4.6 mph - N/A   Clear
10:53 PM 23.0 °F 17.0 °F 7.0 °F 50% 29.92 in 10.0 mi NE 4.6 mph - N/A   Clear
11:53 PM 23.0 °F 14.7 °F 6.1 °F 48% 29.91 in 10.0 mi North 6.9 mph - N/A   Clear